FW5423 Weather Reports


time (UTC)temp
F
wind
direction
speed
knots
gust
knots
rain 1hr
in
rain 24hr
in
rain mn
in
humidity
%
barometer
mb
20260508034533 64 359 15.6 22.6 0.00 0.00 0.00 86 1005.5
20260508034034 64 359 14.8 22.6 0.00 0.00 0.00 86 1005.7
20260508033531 65 359 15.6 20.9 0.00 0.00 0.00 85 1005.7
20260508033033 65 359 15.6 22.6 0.00 0.00 0.00 86 1005.8
20260508032531 65 359 15.6 22.6 0.00 0.00 0.00 86 1005.8
20260508032031 64 359 13.9 20.9 0.00 0.00 0.00 87 1006.1
20260508031531 64 359 13.9 20.9 0.00 0.00 0.00 87 1006.0
20260508031031 64 359 14.8 22.6 0.00 0.00 0.00 87 1006.1
20260508030531 64 359 14.8 22.6 0.00 0.00 0.00 87 1006.0
20260508030032 64 359 14.8 20.9 0.00 0.00 0.00 87 1006.0
20260508025529 64 359 15.6 20.9 0.00 0.00 0.00 88 1006.0
20260508024538 64 359 14.8 20.9 0.00 0.00 0.00 88 1006.0
20260508024036 64 359 13.9 20.9 0.00 0.00 0.00 88 1006.1
20260508023535 64 359 14.8 23.5 0.00 0.00 0.00 88 1006.1
20260508023035 64 359 14.8 23.5 0.00 0.00 0.00 88 1006.1
20260508022535 64 359 14.8 20.0 0.00 0.00 0.00 87 1006.2
20260508022034 64 359 13.9 20.9 0.00 0.00 0.00 87 1006.2
20260508021534 64 359 14.8 20.9 0.00 0.00 0.00 87 1006.3
20260508021035 64 359 15.6 20.0 0.00 0.00 0.00 88 1006.4
20260508020533 64 359 13.0 20.0 0.00 0.00 0.00 88 1006.4
20260508020034 64 359 13.9 20.0 0.00 0.00 0.00 88 1006.2
20260508015532 64 359 13.9 20.0 0.00 0.00 0.00 88 1006.3
20260508014521 64 359 12.2 18.2 0.00 0.00 0.00 87 1006.5
20260508014023 64 359 12.2 17.4 0.00 0.00 0.00 87 1006.5
20260508013523 64 359 12.2 17.4 0.00 0.00 0.00 87 1006.5
20260508013020 64 359 11.3 19.1 0.00 0.00 0.00 87 1006.4
20260508012522 65 359 12.2 19.1 0.00 0.00 0.00 87 1006.3
20260508012019 65 359 12.2 20.0 0.00 0.00 0.00 87 1006.3
20260508011520 65 359 12.2 20.0 0.00 0.00 0.00 86 1006.3
20260508011018 65 359 13.0 19.1 0.00 0.00 0.00 86 1006.2
20260508010517 65 359 12.2 18.2 0.00 0.00 0.00 86 1006.3
20260508010025 65 359 13.0 19.1 0.00 0.00 0.00 86 1006.3
20260508005515 65 359 12.2 19.1 0.00 0.00 0.00 85 1006.2
20260508004530 66 359 12.2 18.2 0.00 0.00 0.00 85 1006.8
20260508004018 66 359 12.2 16.5 0.00 0.00 0.00 85 1006.8
20260508003517 66 359 11.3 15.6 0.00 0.00 0.00 85 1006.7
20260508003016 66 359 10.4 15.6 0.00 0.00 0.00 84 1006.8
20260508002516 66 359 11.3 17.4 0.00 0.00 0.00 83 1006.8
20260508002016 66 359 10.4 16.5 0.00 0.00 0.00 84 1006.7
20260508001515 66 359 9.6 13.9 0.00 0.00 0.00 84 1006.9
20260508001017 67 359 8.7 15.6 0.00 0.00 0.00 83 1006.8
20260508000524 67 359 9.6 15.6 0.00 0.00 0.00 83 1006.8
20260508000018 67 359 10.4 15.6 0.00 0.00 0.00 83 1006.8
20260507235516 67 359 11.3 16.5 0.00 0.00 0.00 82 1006.6
20260507234522 67 359 11.3 18.2 0.00 0.00 0.00 82 1006.5
20260507234014 67 359 10.4 18.2 0.00 0.00 0.00 82 1006.6
20260507233514 67 359 10.4 18.2 0.00 0.00 0.00 81 1006.5
20260507233023 67 359 11.3 18.2 0.00 0.00 0.00 81 1006.5
20260507232517 67 359 11.3 18.2 0.00 0.00 0.00 81 1006.5
20260507232013 67 359 10.4 17.4 0.00 0.00 0.00 81 1006.5
20260507231513 67 359 10.4 17.4 0.00 0.00 0.00 82 1006.5
20260507231013 67 359 11.3 16.5 0.00 0.00 0.00 82 1006.5
20260507230516 67 359 10.4 16.5 0.00 0.00 0.00 82 1006.5
20260507230013 68 359 11.3 16.5 0.00 0.00 0.00 82 1006.5
20260507225513 68 359 11.3 17.4 0.00 0.00 0.00 82 1006.5
20260507224519 68 359 11.3 18.2 0.00 0.00 0.00 81 1006.5
20260507224012 68 359 11.3 16.5 0.00 0.00 0.00 81 1006.4
20260507223516 68 359 9.6 17.4 0.00 0.00 0.00 82 1006.4
20260507223015 68 359 11.3 17.4 0.00 0.00 0.00 81 1006.3
20260507222523 68 359 10.4 17.4 0.00 0.00 0.00 81 1006.2
20260507222014 68 359 12.2 17.4 0.00 0.00 0.00 81 1006.2
20260507221515 68 359 11.3 17.4 0.00 0.00 0.00 81 1006.1
20260507221016 68 359 12.2 17.4 0.00 0.00 0.00 81 1006.0
20260507220520 68 359 11.3 15.6 0.00 0.00 0.00 81 1006.1
20260507220012 68 359 11.3 15.6 0.00 0.00 0.00 81 1006.1
20260507215516 68 359 10.4 15.6 0.00 0.00 0.00 80 1006.0
20260507214519 68 359 11.3 16.5 0.00 0.00 0.00 79 1005.8
20260507214012 68 359 11.3 17.4 0.00 0.00 0.00 79 1005.7
20260507213511 68 359 12.2 16.5 0.00 0.00 0.00 79 1005.7
20260507213011 68 359 10.4 16.5 0.00 0.00 0.00 78 1005.7
20260507212513 68 359 11.3 18.2 0.00 0.00 0.00 77 1005.5
20260507212013 69 359 11.3 18.2 0.00 0.00 0.00 77 1005.5
20260507211511 69 359 12.2 17.4 0.00 0.00 0.00 76 1005.5
20260507211011 69 359 13.0 18.2 0.00 0.00 0.00 76 1005.4
20260507210510 69 359 13.0 18.2 0.00 0.00 0.00 76 1005.4
20260507210010 69 359 11.3 17.4 0.00 0.00 0.00 75 1005.4
20260507205511 69 359 12.2 18.2 0.00 0.00 0.00 75 1005.3
20260507204512 70 359 13.9 19.1 0.00 0.00 0.00 74 1005.4
20260507204012 70 359 13.9 20.0 0.00 0.00 0.00 73 1005.2
20260507203512 70 359 13.0 20.0 0.00 0.00 0.00 73 1005.3
20260507203013 70 359 13.9 18.2 0.00 0.00 0.00 72 1005.4
20260507202512 71 359 13.0 20.0 0.00 0.00 0.00 71 1005.4
20260507202020 71 359 13.9 20.0 0.00 0.00 0.00 71 1005.3
20260507201515 71 359 12.2 17.4 0.00 0.00 0.00 70 1005.3
20260507201012 71 359 12.2 20.0 0.00 0.00 0.00 70 1005.3
20260507200512 71 359 12.2 20.9 0.00 0.00 0.00 69 1005.2
20260507200011 72 359 11.3 20.0 0.00 0.00 0.00 69 1005.3
20260507195512 72 359 13.0 19.1 0.00 0.00 0.00 68 1005.1
20260507194509 72 359 11.3 21.7 0.00 0.00 0.00 67 1005.2
20260507194009 72 359 13.9 21.7 0.00 0.00 0.00 66 1005.2
20260507193508 72 359 15.6 21.7 0.00 0.00 0.00 66 1005.1
20260507193016 73 359 12.2 20.9 0.00 0.00 0.00 66 1005.3
20260507192509 73 359 13.9 22.6 0.00 0.00 0.00 66 1005.4
20260507192008 73 359 15.6 22.6 0.00 0.00 0.00 65 1005.5
20260507191510 73 359 13.9 22.6 0.00 0.00 0.00 64 1005.3
20260507191008 73 359 14.8 22.6 0.00 0.00 0.00 64 1005.3
20260507190509 73 359 13.9 23.5 0.00 0.00 0.00 64 1005.4
20260507190008 73 359 15.6 24.3 0.00 0.00 0.00 63 1005.3
20260507185506 73 4 14.8 24.3 0.00 0.00 0.00 63 1005.5
20260507184506 74 359 15.6 24.3 0.00 0.00 0.00 62 1005.5
20260507184007 74 359 13.0 20.0 0.00 0.00 0.00 63 1005.5
20260507183507 74 359 11.3 20.0 0.00 0.00 0.00 62 1005.7
20260507183008 74 359 13.0 20.9 0.00 0.00 0.00 61 1005.7
20260507182506 74 359 13.0 25.2 0.00 0.00 0.00 59 1005.8
20260507182004 74 359 15.6 25.2 0.00 0.00 0.00 60 1005.7
20260507181505 74 359 13.9 23.5 0.00 0.00 0.00 61 1005.9
20260507181004 74 359 13.9 21.7 0.00 0.00 0.00 59 1005.8
20260507180504 74 359 13.9 24.3 0.00 0.00 0.00 59 1006.0
20260507180004 74 359 17.4 24.3 0.00 0.00 0.00 58 1006.0
20260507175506 74 359 13.9 22.6 0.00 0.00 0.00 59 1005.9
20260507174508 74 359 13.9 20.9 0.00 0.00 0.00 60 1006.1
20260507174002 74 359 13.0 20.9 0.00 0.00 0.00 60 1006.0
20260507173504 74 359 13.9 23.5 0.00 0.00 0.00 59 1006.1
20260507173002 74 359 18.2 27.8 0.00 0.00 0.00 58 1006.0
20260507172502 73 359 13.9 27.8 0.00 0.00 0.00 60 1006.2
20260507172001 74 359 15.6 24.3 0.00 0.00 0.00 59 1006.3
20260507171501 74 359 14.8 25.2 0.00 0.00 0.00 58 1006.2
20260507171001 74 359 15.6 25.2 0.00 0.00 0.00 57 1006.3
20260507170601 74 359 19.1 25.2 0.00 0.00 0.00 55 1006.2
20260507165604 74 359 15.6 28.7 0.00 0.00 0.00 58 1006.5
20260507164601 74 359 16.5 24.3 0.00 0.00 0.00 58 1006.6
20260507164059 74 359 14.8 22.6 0.00 0.00 0.00 57 1006.7
20260507163559 75 359 15.6 22.6 0.00 0.00 0.00 58 1006.5
20260507163059 75 359 13.9 22.6 0.00 0.00 0.00 59 1006.8
20260507162558 74 359 13.9 22.6 0.00 0.00 0.00 58 1006.8
20260507162059 74 359 16.5 22.6 0.00 0.00 0.00 60 1006.9
20260507161558 74 359 15.6 24.3 0.00 0.00 0.00 60 1007.0
20260507161059 74 359 17.4 24.3 0.00 0.00 0.00 60 1006.9
20260507160554 73 359 16.5 23.5 0.00 0.00 0.00 63 1007.1
20260507160114 73 359 14.8 22.6 0.00 0.00 0.00 62 1007.3
20260507155556 73 359 15.6 22.6 0.00 0.00 0.00 63 1007.5
20260507154552 74 359 14.8 23.5 0.00 0.00 0.00 63 1007.6
20260507154050 74 359 15.6 21.7 0.00 0.00 0.00 64 1007.8
20260507153555 74 359 10.4 20.0 0.00 0.00 0.00 67 1007.9
20260507153048 74 359 8.7 20.0 0.00 0.00 0.00 67 1008.1
20260507152557 73 359 13.0 20.9 0.00 0.00 0.00 66 1008.3
20260507152048 74 359 11.3 20.9 0.00 0.00 0.00 66 1008.4
20260507151545 73 359 11.3 25.2 0.00 0.00 0.00 66 1008.5
20260507151045 73 359 14.8 25.2 0.00 0.00 0.00 65 1008.7
20260507150543 73 359 13.9 22.6 0.00 0.00 0.00 65 1008.9
20260507150043 73 359 12.2 20.9 0.00 0.00 0.00 69 1009.1
20260507145544 73 359 13.9 20.9 0.00 0.00 0.00 69 1009.2
20260507144540 73 359 10.4 18.2 0.00 0.00 0.00 71 1009.4
20260507144039 73 359 10.4 21.7 0.00 0.00 0.00 71 1009.4
20260507143537 73 359 11.3 21.7 0.00 0.00 0.00 72 1009.4
20260507143037 72 359 13.0 19.1 0.00 0.00 0.00 72 1009.5
20260507142535 72 359 11.3 17.4 0.00 0.00 0.00 75 1009.7
20260507142034 72 359 12.2 16.5 0.00 0.00 0.00 75 1009.7
20260507141534 72 359 8.7 18.2 0.00 0.00 0.00 77 1009.8
20260507141031 71 359 10.4 20.0 0.00 0.00 0.00 77 1009.9
20260507140530 71 359 11.3 20.0 0.00 0.00 0.00 76 1010.0
20260507140037 71 354 9.6 17.4 0.00 0.00 0.00 76 1010.1
20260507135527 70 16 9.6 17.4 0.00 0.00 0.00 77 1010.2
20260507134529 70 359 8.7 14.8 0.00 0.00 0.00 78 1010.5
20260507134027 70 15 8.7 14.8 0.00 0.00 0.00 78 1010.5
20260507133525 69 359 7.8 17.4 0.00 0.00 0.00 79 1010.6
20260507133024 69 359 7.0 12.2 0.00 0.00 0.00 81 1010.5
20260507132522 69 359 6.1 14.8 0.00 0.00 0.00 81 1010.6
20260507132026 68 359 8.7 14.8 0.00 0.00 0.00 80 1010.8
20260507131538 68 359 7.8 14.8 0.00 0.00 0.00 79 1010.7
20260507131021 69 359 9.6 14.8 0.00 0.00 0.00 78 1010.8
20260507130520 69 359 7.8 13.0 0.00 0.00 0.00 79 1010.8
20260507130020 68 359 7.0 13.0 0.00 0.00 0.00 80 1010.9
20260507125519 69 359 6.1 13.0 0.00 0.00 0.00 79 1010.9
20260507124519 69 10 7.8 13.9 0.00 0.00 0.00 78 1010.9
20260507124013 68 359 8.7 13.9 0.00 0.00 0.00 79 1010.9
20260507123512 68 359 7.0 12.2 0.00 0.00 0.00 79 1011.0
20260507123013 68 359 6.1 10.4 0.00 0.00 0.00 79 1011.0
20260507122517 67 359 7.0 14.8 0.00 0.00 0.00 81 1011.1
20260507122008 67 359 6.1 10.4 0.00 0.00 0.00 81 1011.2
20260507121508 67 8 7.0 10.4 0.00 0.00 0.00 81 1011.1
20260507121006 67 359 6.1 12.2 0.00 0.00 0.00 81 1011.2
20260507120504 67 359 7.8 12.2 0.00 0.00 0.00 81 1011.2
20260507120002 66 359 6.1 12.2 0.00 0.00 0.00 82 1011.3
20260507115502 66 359 7.0 13.0 0.00 0.00 0.00 81 1011.3
20260507114501 66 359 6.1 13.0 0.00 0.00 0.00 79 1011.3
20260507114100 66 359 7.8 13.0 0.00 0.00 0.00 78 1011.3
20260507113600 66 359 7.0 15.6 0.00 0.00 0.00 79 1011.3
20260507113131 66 359 7.8 15.6 0.00 0.00 0.00 79 1011.3
20260507112557 66 359 8.7 14.8 0.00 0.00 0.00 78 1011.3
20260507112059 66 354 9.6 14.8 0.00 0.00 0.00 78 1011.3
20260507111556 66 9 7.0 13.9 0.00 0.00 0.00 78 1011.2
20260507111054 65 359 7.8 13.9 0.00 0.00 0.00 79 1011.3
20260507110554 65 359 7.0 13.9 0.00 0.00 0.00 79 1011.3
20260507110053 65 359 8.7 13.0 0.00 0.00 0.00 79 1011.3
20260507105551 65 359 8.7 13.0 0.00 0.00 0.00 80 1011.4
20260507105151 65 359 7.0 12.2 0.00 0.00 0.00 79 1011.4
20260507104601 65 359 7.8 12.2 0.00 0.00 0.00 79 1011.4
20260507104050 65 359 7.8 14.8 0.00 0.00 0.00 79 1011.4
20260507103548 65 359 7.0 13.0 0.00 0.00 0.00 80 1011.5
20260507103048 65 359 7.8 14.8 0.00 0.00 0.00 79 1011.4
20260507102548 65 359 7.0 14.8 0.00 0.00 0.00 79 1011.3
20260507102048 65 359 7.8 13.9 0.00 0.00 0.00 79 1011.2
20260507101553 64 359 7.8 13.0 0.00 0.00 0.00 80 1011.3
20260507101050 64 359 7.0 12.2 0.00 0.00 0.00 80 1011.3
20260507100547 64 359 8.7 13.9 0.00 0.00 0.00 80 1011.3
20260507100055 63 359 8.7 13.9 0.00 0.00 0.00 81 1011.2
20260507095547 63 359 7.8 12.2 0.00 0.00 0.00 81 1011.1
20260507095148 63 359 7.0 11.3 0.00 0.00 0.00 81 1011.2
20260507094548 63 359 7.8 11.3 0.00 0.00 0.00 80 1011.2
20260507094051 63 359 7.8 10.4 0.00 0.00 0.00 80 1011.1
20260507093547 63 4 7.0 11.3 0.00 0.00 0.00 81 1011.1
20260507093047 63 359 7.0 13.9 0.00 0.00 0.00 81 1011.1
20260507092548 63 359 7.8 12.2 0.00 0.00 0.00 81 1011.1
20260507092049 63 359 7.8 12.2 0.00 0.00 0.00 82 1010.9
20260507091549 63 359 7.8 13.9 0.00 0.00 0.00 82 1010.8
20260507091046 63 359 8.7 13.9 0.00 0.00 0.00 82 1010.7
20260507090545 63 359 7.8 11.3 0.00 0.00 0.00 81 1010.6
20260507090046 63 359 7.0 12.2 0.00 0.00 0.00 81 1010.7
20260507085545 63 359 7.0 13.0 0.00 0.00 0.00 81 1010.8
20260507085145 63 359 7.8 13.0 0.00 0.00 0.00 80 1010.7
20260507084554 63 359 7.0 13.0 0.00 0.00 0.00 81 1010.6
20260507084047 64 359 7.8 14.8 0.00 0.00 0.00 80 1010.6
20260507083544 64 359 8.7 14.8 0.00 0.00 0.00 79 1010.5
20260507083044 64 359 7.8 13.9 0.00 0.00 0.00 79 1010.6
20260507082542 64 359 7.8 13.9 0.00 0.00 0.00 79 1010.6
20260507082043 64 359 8.7 13.0 0.00 0.00 0.00 79 1010.5
20260507081543 64 359 9.6 13.0 0.00 0.00 0.00 80 1010.6
20260507081042 64 359 8.7 13.0 0.00 0.00 0.00 81 1010.6
20260507080540 64 359 8.7 13.9 0.00 0.00 0.00 82 1010.6
20260507080040 64 34 7.0 14.8 0.00 0.00 0.00 81 1010.6
20260507075540 64 28 9.6 15.6 0.00 0.00 0.00 79 1010.7
20260507075139 64 359 8.7 13.9 0.00 0.00 0.00 80 1010.7
20260507074541 64 359 7.8 13.0 0.00 0.00 0.00 79 1010.8
20260507074036 65 359 8.7 13.9 0.00 0.00 0.00 79 1010.9
20260507073535 64 14 9.6 14.8 0.00 0.00 0.00 79 1010.9
20260507073035 64 4 10.4 14.8 0.00 0.00 0.00 82 1011.0
20260507072535 64 359 8.7 16.5 0.00 0.00 0.00 82 1010.9
20260507072035 64 359 9.6 16.5 0.00 0.00 0.00 82 1010.9
20260507071537 64 18 8.7 14.8 0.00 0.00 0.00 82 1010.9
20260507071033 64 359 7.8 13.0 0.00 0.00 0.00 80 1011.0
20260507070533 64 359 8.7 13.0 0.00 0.00 0.00 81 1011.0
20260507070033 64 359 7.8 13.9 0.00 0.00 0.00 81 1011.1
20260507065531 64 359 7.8 12.2 0.00 0.00 0.00 82 1011.1
20260507065131 65 359 7.0 12.2 0.00 0.00 0.00 81 1011.2
20260507064543 65 359 7.0 12.2 0.00 0.00 0.00 81 1011.2
20260507064058 65 359 7.8 13.0 0.00 0.00 0.00 82 1011.2
20260507063532 65 359 9.6 13.0 0.00 0.00 0.00 82 1011.3
20260507063031 65 359 8.7 13.0 0.00 0.00 0.00 81 1011.3
20260507062531 65 359 8.7 12.2 0.00 0.00 0.00 80 1011.5
20260507062102 65 359 7.0 11.3 0.00 0.00 0.00 80 1011.5
20260507061535 65 359 7.8 13.9 0.00 0.00 0.00 80 1011.5
20260507061029 65 359 7.8 13.9 0.00 0.00 0.00 80 1011.5
20260507060528 64 359 7.0 12.2 0.00 0.00 0.00 82 1011.6
20260507060036 65 359 7.8 12.2 0.00 0.00 0.00 83 1011.6
20260507055528 65 359 7.8 13.0 0.00 0.00 0.00 83 1011.6
20260507055131 65 359 8.7 13.0 0.00 0.00 0.00 83 1011.9
20260507054535 65 359 7.8 11.3 0.00 0.00 0.00 85 1011.9
20260507054023 65 359 6.1 13.9 0.00 0.00 0.00 85 1011.9
20260507053523 65 359 7.8 13.9 0.00 0.00 0.00 85 1012.0
20260507053021 65 359 7.0 12.2 0.00 0.00 0.00 85 1012.2
20260507052524 65 359 7.0 10.4 0.00 0.00 0.00 85 1012.3
20260507052020 65 359 7.0 10.4 0.00 0.00 0.00 85 1012.3
20260507051520 65 359 6.1 12.2 0.00 0.00 0.00 85 1012.4
20260507051023 65 4 7.0 12.2 0.00 0.00 0.00 85 1012.4
20260507050519 65 359 6.1 11.3 0.00 0.00 0.00 86 1012.6
20260507050039 66 359 7.8 11.3 0.00 0.00 0.00 85 1012.6
20260507045517 66 359 7.0 11.3 0.00 0.00 0.00 85 1012.7
20260507045116 66 359 7.0 12.2 0.00 0.00 0.00 85 1012.7
20260507044522 66 359 7.8 12.2 0.00 0.00 0.00 85 1012.7
20260507044015 66 359 5.2 10.4 0.00 0.00 0.00 85 1012.7
20260507043515 66 359 7.0 13.0 0.00 0.00 0.00 84 1012.8
20260507043015 66 359 7.0 13.0 0.00 0.00 0.00 85 1012.9
20260507042515 66 359 7.0 12.2 0.00 0.00 0.00 86 1012.9
20260507042014 65 359 7.0 12.2 0.00 0.00 0.00 88 1012.9
20260507041513 65 359 7.8 12.2 0.00 0.00 0.00 89 1013.0
20260507041013 65 359 7.0 13.0 0.00 0.00 0.00 90 1013.0
20260507040512 65 359 8.7 13.0 0.00 0.00 0.00 89 1013.0
20260507040014 65 359 7.0 10.4 0.00 0.00 0.00 89 1013.0
20260507035510 66 4 6.1 11.3 0.00 0.00 0.00 89 1013.1
20260507035110 65 359 7.8 11.3 0.00 0.00 0.00 89 1013.2